This is the latest recevied weather packets stored in our database for station/object KR4ELZ. If no packets are shown the sender has not sent any weather packets the latest 10 day(s).
| Time | Temp. | Humidity | Pressure | Rain* | Wind** | Luminosity | Snow |
|---|---|---|---|---|---|---|---|
| 1777556190 | 13.89° C | 64% | 1016.6 hPa | 0 mm | - | 272 W/m² | - |
| 1777555886 | 13.89° C | 67% | 1016.3 hPa | 0 mm | - | 252 W/m² | - |
| 1777555582 | 13.33° C | 67% | 1016.2 hPa | 0 mm | - | 179 W/m² | - |
| 1777555279 | 13.89° C | 69% | 1016.4 hPa | 0 mm | - | 231 W/m² | - |
| 1777554975 | 12.78° C | 68% | 1016.3 hPa | 0 mm | - | 205 W/m² | - |
| 1777554672 | 13.33° C | 69% | 1016.3 hPa | 0 mm | - | 193 W/m² | - |
| 1777554369 | 12.78° C | 72% | 1016.3 hPa | 0 mm | - | 152 W/m² | - |
| 1777554066 | 13.33° C | 73% | 1016.4 hPa | 0 mm | - | 103 W/m² | - |
| 1777553763 | 12.78° C | 74% | 1016.4 hPa | 0 mm | - | 59 W/m² | - |
| 1777553460 | 12.22° C | 76% | 1016.6 hPa | 0 mm | - | 140 W/m² | - |
| 1777553156 | 11.67° C | 78% | 1016.8 hPa | 0 mm | - | 42 W/m² | - |
| 1777552856 | 11.11° C | 80% | 1016.7 hPa | 0 mm | - | 34 W/m² | - |
| 1777552551 | 11.11° C | 82% | 1016.6 hPa | 0 mm | - | 35 W/m² | - |
| 1777552248 | 11.11° C | 83% | 1016.6 hPa | 0 mm | - | 45 W/m² | - |
| 1777551945 | 11.11° C | 85% | 1016.7 hPa | 0 mm | - | 45 W/m² | - |
| 1777551642 | 10.56° C | 84% | 1016.7 hPa | 0 mm | - | 31 W/m² | - |
| 1777551340 | 10.56° C | 86% | 1016.6 hPa | 0 mm | - | 34 W/m² | - |
| 1777551036 | 10.56° C | 88% | 1016.4 hPa | 0 mm | - | 36 W/m² | - |
| 1777550733 | 10.56° C | 89% | 1016.6 hPa | 0 mm | - | 25 W/m² | - |
| 1777550429 | 10° C | 89% | 1016.5 hPa | 0 mm | - | 19 W/m² | - |
| 1777550126 | 10° C | 89% | 1016.4 hPa | 0 mm | - | 27 W/m² | - |
| 1777549822 | 10° C | 89% | 1016.3 hPa | 0 mm | - | 20 W/m² | - |
| 1777549518 | 10° C | 90% | 1016 hPa | 0 mm | - | 15 W/m² | - |
| 1777549214 | 10° C | 90% | 1016 hPa | 0 mm | - | 19 W/m² | - |
| 1777548911 | 10° C | 90% | 1016.2 hPa | 0 mm | - | 16 W/m² | - |
* Rain latest hour (hover to see other rain measurements)
** Current wind speed in m/s (hover to see current wind gust speed)